Location: Croydon
(51.3762°N, 0.0982°W)
Time: 20:25:48
(UTC+00:00)

OTV 5 (USA 277) - Visible Passes

Search period start: 22 February 2019 00:00
Search period end: 04 March 2019 00:00
Orbit: 342 x 346 km, 54.5° (Epoch: 17 February)

Date Brightness Start Highest point End Pass type
(mag) Time Alt. Az. Time Alt. Az. Time Alt. Az.
24 Feb ? 19:00:47 10° S 19:01:57 15° SSE 19:01:57 15° SSE visible
25 Feb ? 19:23:26 10° SW 19:25:20 30° S 19:25:20 30° S visible
26 Feb ? 18:13:17 10° S 18:15:12 16° SE 18:17:07 10° E visible
26 Feb ? 19:46:51 10° WSW 19:48:37 33° WSW 19:48:37 33° WSW visible
27 Feb ? 18:35:54 10° SW 18:38:36 37° SSE 18:40:19 18° E visible
27 Feb ? 20:10:36 10° W 20:11:46 21° W 20:11:46 21° W visible
28 Feb ? 18:59:17 10° WSW 19:02:11 83° SSE 19:03:23 31° ENE visible
28 Feb ? 20:34:28 10° WNW 20:34:50 13° WNW 20:34:50 13° WNW visible
01 Mar ? 19:23:02 10° W 19:25:53 56° NNW 19:26:23 47° NNE visible
02 Mar ? 19:46:53 10° WNW 19:49:20 40° NNW 19:49:20 40° NNW visible
03 Mar ? 18:35:27 10° W 18:38:18 57° NNW 18:40:48 13° ENE visible
03 Mar ? 20:10:43 10° WNW 20:12:14 25° NW 20:12:14 25° NW visible
